Time,TemperatureF,DewpointF,PressureIn,WindDirection,WindDirectionDegrees,WindSpeedMPH,WindSpeedGustMPH,Humidity,HourlyPrecipIn,Conditions,Clouds,dailyrainin,SoftwareType,DateUTC
2013-04-05 00:03:00,37.0,29.0,30.03,SW,217,4.0,13.0,73,0.00,,,0.00,,2013-04-05 04:03:00,
2013-04-05 00:12:00,37.0,29.0,30.03,SW,217,4.0,13.0,73,0.00,,,0.00,,2013-04-05 04:12:00,
2013-04-05 00:23:00,37.0,29.0,30.03,SW,214,7.0,15.0,74,0.00,,,0.00,,2013-04-05 04:23:00,
2013-04-05 00:33:00,37.0,30.0,30.03,SSW,212,5.0,15.0,76,0.00,,,0.00,,2013-04-05 04:33:00,
2013-04-05 00:42:00,37.0,30.0,30.03,SSW,212,5.0,15.0,76,0.00,,,0.00,,2013-04-05 04:42:00,
2013-04-05 00:52:00,37.0,30.0,30.02,South,188,5.0,15.0,77,0.00,,,0.00,,2013-04-05 04:52:00,
2013-04-05 01:02:00,37.0,31.0,30.01,SW,231,6.0,14.0,78,0.00,,,0.00,,2013-04-05 05:02:00,
2013-04-05 01:13:00,37.0,31.0,30.01,SW,231,6.0,14.0,78,0.00,,,0.00,,2013-04-05 05:13:00,
2013-04-05 01:22:00,37.0,31.0,30.01,WSW,246,8.0,13.0,78,0.00,,,0.00,,2013-04-05 05:22:00,
2013-04-05 01:32:00,37.0,30.0,30.00,SW,215,8.0,18.0,77,0.00,,,0.00,,2013-04-05 05:32:00,
2013-04-05 01:42:00,37.0,30.0,30.00,SW,215,8.0,18.0,77,0.00,,,0.00,,2013-04-05 05:42:00,
2013-04-05 01:52:00,37.0,30.0,29.99,SW,235,6.0,15.0,77,0.00,,,0.00,,2013-04-05 05:52:00,
2013-04-05 02:02:00,37.0,30.0,29.99,SW,215,7.0,14.0,76,0.00,,,0.00,,2013-04-05 06:02:00,
2013-04-05 02:12:00,37.0,30.0,29.99,SW,215,7.0,14.0,76,0.00,,,0.00,,2013-04-05 06:12:00,
2013-04-05 02:22:00,37.0,30.0,29.98,WSW,252,7.0,11.0,76,0.00,,,0.00,,2013-04-05 06:22:00,
2013-04-05 02:32:00,37.0,30.0,29.98,SW,226,5.0,14.0,76,0.00,,,0.00,,2013-04-05 06:32:00,
2013-04-05 02:42:00,37.0,30.0,29.98,SW,226,5.0,14.0,76,0.00,,,0.00,,2013-04-05 06:42:00,
2013-04-05 02:52:00,37.0,30.0,29.97,SSW,212,6.0,13.0,77,0.00,,,0.00,,2013-04-05 06:52:00,
2013-04-05 03:03:00,37.0,30.0,29.97,SW,234,4.0,13.0,77,0.00,,,0.00,,2013-04-05 07:03:00,
2013-04-05 03:12:00,37.0,30.0,29.97,SW,234,4.0,13.0,77,0.00,,,0.00,,2013-04-05 07:12:00,
2013-04-05 03:22:00,37.0,31.0,29.96,SW,216,10.0,15.0,78,0.00,,,0.00,,2013-04-05 07:22:00,
2013-04-05 03:32:00,37.0,30.0,29.95,SSW,204,6.0,14.0,77,0.00,,,0.00,,2013-04-05 07:32:00,
2013-04-05 03:42:00,37.0,30.0,29.95,SSW,204,6.0,14.0,77,0.00,,,0.00,,2013-04-05 07:42:00,
2013-04-05 03:52:00,37.0,30.0,29.94,SW,220,5.0,15.0,76,0.00,,,0.00,,2013-04-05 07:52:00,
2013-04-05 04:03:00,37.0,30.0,29.93,SSW,198,3.0,15.0,76,0.00,,,0.00,,2013-04-05 08:03:00,
2013-04-05 04:13:00,37.0,30.0,29.93,SSW,198,3.0,15.0,76,0.00,,,0.00,,2013-04-05 08:13:00,
2013-04-05 04:22:00,37.0,30.0,29.93,South,190,6.0,12.0,76,0.00,,,0.00,,2013-04-05 08:22:00,
2013-04-05 04:33:00,37.0,30.0,29.93,SSW,203,6.0,13.0,75,0.00,,,0.00,,2013-04-05 08:33:00,
2013-04-05 04:43:00,37.0,30.0,29.93,SSW,203,6.0,13.0,75,0.00,,,0.00,,2013-04-05 08:43:00,
2013-04-05 04:52:00,37.0,30.0,29.93,SSW,198,7.0,13.0,75,0.00,,,0.00,,2013-04-05 08:52:00,
2013-04-05 05:02:00,37.0,30.0,29.93,SSW,194,4.0,13.0,75,0.00,,,0.00,,2013-04-05 09:02:00,
2013-04-05 05:12:00,37.0,30.0,29.93,SSW,194,4.0,13.0,75,0.00,,,0.00,,2013-04-05 09:12:00,
2013-04-05 05:22:00,37.0,29.0,29.92,SSW,211,3.0,15.0,74,0.00,,,0.00,,2013-04-05 09:22:00,
2013-04-05 05:33:00,38.0,30.0,29.92,SW,222,5.0,11.0,73,0.00,,,0.00,,2013-04-05 09:33:00,
2013-04-05 05:43:00,38.0,30.0,29.92,SW,222,5.0,11.0,73,0.00,,,0.00,,2013-04-05 09:43:00,
2013-04-05 05:52:00,38.0,30.0,29.91,SSW,193,5.0,11.0,73,0.00,,,0.00,,2013-04-05 09:52:00,
2013-04-05 06:03:00,37.0,29.0,29.91,SSW,203,5.0,14.0,74,0.00,,,0.00,,2013-04-05 10:03:00,
2013-04-05 06:13:00,37.0,29.0,29.91,SSW,203,5.0,14.0,74,0.00,,,0.00,,2013-04-05 10:13:00,
2013-04-05 06:23:00,37.0,29.0,29.90,SSW,207,5.0,8.0,74,0.00,,,0.00,,2013-04-05 10:23:00,
2013-04-05 06:33:00,37.0,29.0,29.89,SSW,204,3.0,6.0,74,0.00,,,0.00,,2013-04-05 10:33:00,
2013-04-05 06:43:00,37.0,29.0,29.89,SSW,204,3.0,6.0,74,0.00,,,0.00,,2013-04-05 10:43:00,
2013-04-05 06:52:00,37.0,30.0,29.89,SSW,211,2.0,6.0,75,0.00,,,0.00,,2013-04-05 10:52:00,
2013-04-05 07:03:00,37.0,30.0,29.90,SSW,202,3.0,7.0,76,0.00,,,0.00,,2013-04-05 11:03:00,
2013-04-05 07:13:00,37.0,30.0,29.90,SSW,202,3.0,7.0,76,0.00,,,0.00,,2013-04-05 11:13:00,
2013-04-05 07:22:00,37.0,30.0,29.90,SSW,197,3.0,7.0,76,0.00,,,0.00,,2013-04-05 11:22:00,
2013-04-05 07:33:00,38.0,31.0,29.89,SSW,211,3.0,6.0,75,0.00,,,0.00,,2013-04-05 11:33:00,
2013-04-05 07:42:00,38.0,31.0,29.89,SSW,211,3.0,6.0,75,0.00,,,0.00,,2013-04-05 11:42:00,
2013-04-05 07:52:00,38.0,31.0,29.89,SW,215,4.0,7.0,75,0.00,,,0.00,,2013-04-05 11:52:00,
2013-04-05 08:02:00,39.0,31.0,29.89,SSW,202,3.0,11.0,74,0.00,,,0.00,,2013-04-05 12:02:00,
2013-04-05 08:12:00,39.0,31.0,29.89,SSW,202,3.0,11.0,74,0.00,,,0.00,,2013-04-05 12:12:00,
2013-04-05 08:22:00,39.0,31.0,29.89,SW,214,4.0,9.0,73,0.00,,,0.00,,2013-04-05 12:22:00,
2013-04-05 08:32:00,40.0,32.0,29.87,SSW,195,7.0,10.0,73,0.00,,,0.00,,2013-04-05 12:32:00,
2013-04-05 08:42:00,40.0,32.0,29.87,SSW,195,7.0,10.0,73,0.00,,,0.00,,2013-04-05 12:42:00,
2013-04-05 08:52:00,40.0,32.0,29.87,SW,219,4.0,11.0,72,0.00,,,0.00,,2013-04-05 12:52:00,
2013-04-05 09:02:00,41.0,32.0,29.85,SSW,205,5.0,11.0,71,0.00,,,0.00,,2013-04-05 13:02:00,
2013-04-05 09:12:00,41.0,32.0,29.85,SSW,205,5.0,11.0,71,0.00,,,0.00,,2013-04-05 13:12:00,
2013-04-05 09:23:00,42.0,33.0,29.86,SSW,208,3.0,10.0,70,0.00,,,0.00,,2013-04-05 13:23:00,
2013-04-05 09:32:00,42.0,32.0,29.85,SW,236,7.0,12.0,68,0.00,,,0.00,,2013-04-05 13:32:00,
2013-04-05 09:42:00,42.0,32.0,29.85,SW,236,7.0,12.0,68,0.00,,,0.00,,2013-04-05 13:42:00,
2013-04-05 09:52:00,43.0,33.0,29.85,SSW,211,7.0,13.0,68,0.00,,,0.00,,2013-04-05 13:52:00,
2013-04-05 10:03:00,43.0,32.0,29.85,SSW,209,6.0,10.0,66,0.00,,,0.00,,2013-04-05 14:03:00,
2013-04-05 10:12:00,43.0,32.0,29.85,SSW,209,6.0,10.0,66,0.00,,,0.00,,2013-04-05 14:12:00,
2013-04-05 10:23:00,44.0,33.0,29.85,SW,215,3.0,13.0,64,0.00,,,0.00,,2013-04-05 14:23:00,
2013-04-05 10:37:00,44.0,32.0,29.83,South,181,2.0,11.0,63,0.00,,,0.00,,2013-04-05 14:37:00,
2013-04-05 10:43:00,44.0,32.0,29.83,South,181,2.0,11.0,63,0.00,,,0.00,,2013-04-05 14:43:00,
2013-04-05 10:52:00,45.0,33.0,29.82,SSW,198,10.0,15.0,62,0.00,,,0.00,,2013-04-05 14:52:00,
2013-04-05 11:02:00,46.0,31.0,29.82,WSW,248,5.0,11.0,56,0.00,,,0.00,,2013-04-05 15:02:00,
2013-04-05 11:13:00,46.0,31.0,29.82,WSW,248,5.0,11.0,56,0.00,,,0.00,,2013-04-05 15:13:00,
2013-04-05 11:23:00,47.0,32.0,29.81,West,261,4.0,12.0,56,0.00,,,0.00,,2013-04-05 15:23:00,
2013-04-05 11:33:00,48.0,33.0,29.80,SW,222,2.0,12.0,56,0.00,,,0.00,,2013-04-05 15:33:00,
2013-04-05 11:43:00,48.0,33.0,29.80,SW,222,2.0,12.0,56,0.00,,,0.00,,2013-04-05 15:43:00,
2013-04-05 11:53:00,48.0,32.0,29.80,West,271,5.0,11.0,54,0.00,,,0.00,,2013-04-05 15:53:00,
2013-04-05 12:03:00,49.0,33.0,29.78,SSW,201,4.0,10.0,54,0.00,,,0.00,,2013-04-05 16:03:00,
2013-04-05 12:13:00,49.0,33.0,29.78,SSW,201,4.0,10.0,54,0.00,,,0.00,,2013-04-05 16:13:00,
2013-04-05 12:23:00,49.0,34.0,29.77,SSW,196,4.0,7.0,55,0.00,,,0.00,,2013-04-05 16:23:00,
2013-04-05 12:33:00,51.0,34.0,29.75,SSE,163,7.0,12.0,53,0.00,,,0.00,,2013-04-05 16:33:00,
2013-04-05 12:42:00,51.0,34.0,29.75,SSE,163,7.0,12.0,53,0.00,,,0.00,,2013-04-05 16:42:00,
2013-04-05 12:52:00,51.0,34.0,29.75,SSE,163,7.0,12.0,53,0.00,,,0.00,,2013-04-05 16:52:00,
2013-04-05 13:03:00,52.0,34.0,29.72,NNE,17,2.0,8.0,50,0.00,,,0.00,,2013-04-05 17:03:00,
2013-04-05 13:13:00,52.0,34.0,29.72,NNE,17,2.0,8.0,50,0.00,,,0.00,,2013-04-05 17:13:00,
2013-04-05 13:23:00,52.0,33.0,29.72,South,180,0.0,7.0,49,0.00,,,0.00,,2013-04-05 17:23:00,
2013-04-05 13:33:00,52.0,32.0,29.70,WSW,238,5.0,14.0,47,0.00,,,0.00,,2013-04-05 17:33:00,
2013-04-05 13:45:00,52.0,32.0,29.70,WSW,238,5.0,14.0,47,0.00,,,0.00,,2013-04-05 17:45:00,
2013-04-05 13:52:00,53.0,33.0,29.69,NNE,25,3.0,5.0,46,0.00,,,0.00,,2013-04-05 17:52:00,
2013-04-05 14:02:00,55.0,36.0,29.68,WSW,250,2.0,16.0,48,0.00,,,0.00,,2013-04-05 18:02:00,
2013-04-05 14:13:00,55.0,36.0,29.68,WSW,250,2.0,16.0,48,0.00,,,0.00,,2013-04-05 18:13:00,
2013-04-05 14:23:00,55.0,34.0,29.67,NW,305,6.0,16.0,45,0.00,,,0.00,,2013-04-05 18:23:00,
2013-04-05 14:33:00,55.0,33.0,29.66,SW,217,5.0,8.0,43,0.00,,,0.00,,2013-04-05 18:33:00,
2013-04-05 14:43:00,55.0,33.0,29.66,SW,217,5.0,8.0,43,0.00,,,0.00,,2013-04-05 18:43:00,
2013-04-05 14:52:00,56.0,33.0,29.65,WSW,248,4.0,13.0,42,0.00,,,0.00,,2013-04-05 18:52:00,
2013-04-05 15:02:00,57.0,32.0,29.63,North,5,5.0,8.0,38,0.00,,,0.00,,2013-04-05 19:02:00,
2013-04-05 15:13:00,57.0,32.0,29.63,North,5,5.0,8.0,38,0.00,,,0.00,,2013-04-05 19:13:00,
2013-04-05 15:23:00,57.0,31.0,29.63,WSW,249,6.0,9.0,37,0.00,,,0.00,,2013-04-05 19:23:00,
2013-04-05 15:33:00,57.0,31.0,29.63,WSW,249,6.0,9.0,37,0.00,,,0.00,,2013-04-05 19:33:00,
2013-04-05 15:42:00,57.0,31.0,29.63,WSW,249,6.0,9.0,37,0.00,,,0.00,,2013-04-05 19:42:00,
2013-04-05 15:52:00,57.0,31.0,29.63,WSW,249,6.0,9.0,37,0.00,,,0.00,,2013-04-05 19:52:00,
2013-04-05 16:22:00,59.0,28.0,29.59,NNW,338,4.0,11.0,31,0.00,,,0.00,,2013-04-05 20:22:00,
2013-04-05 16:33:00,59.0,28.0,29.59,NNW,338,4.0,11.0,31,0.00,,,0.00,,2013-04-05 20:33:00,
2013-04-05 16:43:00,59.0,28.0,29.59,NNW,338,4.0,11.0,31,0.00,,,0.00,,2013-04-05 20:43:00,
2013-04-05 16:52:00,60.0,28.0,29.59,NW,304,7.0,14.0,29,0.00,,,0.00,,2013-04-05 20:52:00,
2013-04-05 17:03:00,60.0,27.0,29.58,WNW,286,10.0,18.0,28,0.00,,,0.00,,2013-04-05 21:03:00,
2013-04-05 17:13:00,60.0,27.0,29.58,WNW,286,10.0,18.0,28,0.00,,,0.00,,2013-04-05 21:13:00,
2013-04-05 17:23:00,60.0,28.0,29.59,NW,311,7.0,15.0,30,0.00,,,0.00,,2013-04-05 21:23:00,
2013-04-05 17:34:00,59.0,28.0,29.59,NW,304,11.0,21.0,31,0.00,,,0.00,,2013-04-05 21:34:00,
2013-04-05 17:43:00,59.0,28.0,29.59,NW,304,11.0,21.0,31,0.00,,,0.00,,2013-04-05 21:43:00,
2013-04-05 17:53:00,59.0,28.0,29.60,WNW,283,6.0,19.0,30,0.00,,,0.00,,2013-04-05 21:53:00,
2013-04-05 18:03:00,58.0,27.0,29.60,WNW,297,7.0,19.0,30,0.00,,,0.00,,2013-04-05 22:03:00,
2013-04-05 18:13:00,58.0,27.0,29.60,WNW,297,7.0,19.0,30,0.00,,,0.00,,2013-04-05 22:13:00,
2013-04-05 18:23:00,57.0,25.0,29.61,WNW,293,9.0,22.0,29,0.00,,,0.00,,2013-04-05 22:23:00,
2013-04-05 18:33:00,56.0,26.0,29.63,WNW,302,7.0,17.0,31,0.00,,,0.00,,2013-04-05 22:33:00,
2013-04-05 18:43:00,56.0,26.0,29.63,WNW,302,7.0,17.0,31,0.00,,,0.00,,2013-04-05 22:43:00,
2013-04-05 18:52:00,55.0,26.0,29.63,West,273,5.0,18.0,33,0.00,,,0.00,,2013-04-05 22:52:00,
2013-04-05 19:03:00,54.0,26.0,29.65,West,280,5.0,19.0,33,0.00,,,0.00,,2013-04-05 23:03:00,
2013-04-05 19:12:00,54.0,26.0,29.65,West,280,5.0,19.0,33,0.00,,,0.00,,2013-04-05 23:12:00,
2013-04-05 19:22:00,54.0,26.0,29.66,WNW,284,7.0,17.0,33,0.00,,,0.00,,2013-04-05 23:22:00,
2013-04-05 19:33:00,52.0,25.0,29.66,WNW,298,5.0,17.0,34,0.00,,,0.00,,2013-04-05 23:33:00,
2013-04-05 19:42:00,52.0,25.0,29.66,WNW,298,5.0,17.0,34,0.00,,,0.00,,2013-04-05 23:42:00,
2013-04-05 19:52:00,52.0,25.0,29.67,NW,317,6.0,14.0,34,0.00,,,0.00,,2013-04-05 23:52:00,
2013-04-05 20:03:00,50.0,25.0,29.67,NW,309,5.0,13.0,37,0.00,,,0.00,,2013-04-06 00:03:00,
2013-04-05 20:13:00,50.0,25.0,29.67,NW,309,5.0,13.0,37,0.00,,,0.00,,2013-04-06 00:13:00,
2013-04-05 20:23:00,50.0,25.0,29.68,NW,304,2.0,12.0,38,0.00,,,0.00,,2013-04-06 00:23:00,
2013-04-05 20:33:00,50.0,26.0,29.70,West,273,6.0,11.0,39,0.00,,,0.00,,2013-04-06 00:33:00,
2013-04-05 20:42:00,50.0,26.0,29.70,West,273,6.0,11.0,39,0.00,,,0.00,,2013-04-06 00:42:00,
2013-04-05 20:52:00,49.0,26.0,29.70,NW,313,2.0,15.0,40,0.00,,,0.00,,2013-04-06 00:52:00,
2013-04-05 21:02:00,49.0,27.0,29.72,NNE,13,8.0,22.0,42,0.00,,,0.00,,2013-04-06 01:02:00,
2013-04-05 21:13:00,49.0,27.0,29.73,North,355,9.0,20.0,42,0.00,,,0.00,,2013-04-06 01:13:00,
2013-04-05 21:22:00,49.0,27.0,29.73,North,355,9.0,20.0,42,0.00,,,0.00,,2013-04-06 01:22:00,
2013-04-05 21:33:00,48.0,27.0,29.75,NW,311,2.0,19.0,43,0.00,,,0.00,,2013-04-06 01:33:00,
2013-04-05 21:43:00,48.0,27.0,29.75,NW,311,2.0,19.0,43,0.00,,,0.00,,2013-04-06 01:43:00,
2013-04-05 21:52:00,48.0,27.0,29.75,West,267,5.0,12.0,44,0.00,,,0.00,,2013-04-06 01:52:00,
2013-04-05 22:02:00,47.0,26.0,29.76,North,5,7.0,18.0,44,0.00,,,0.00,,2013-04-06 02:02:00,
2013-04-05 22:12:00,47.0,26.0,29.76,North,5,7.0,18.0,44,0.00,,,0.00,,2013-04-06 02:12:00,
2013-04-05 22:23:00,47.0,26.0,29.76,WSW,257,9.0,28.0,44,0.00,,,0.00,,2013-04-06 02:23:00,
2013-04-05 22:33:00,46.0,26.0,29.78,NNW,329,7.0,22.0,45,0.00,,,0.00,,2013-04-06 02:33:00,
2013-04-05 22:42:00,46.0,26.0,29.78,NNW,329,7.0,22.0,45,0.00,,,0.00,,2013-04-06 02:42:00,
2013-04-05 22:52:00,45.0,25.0,29.78,West,281,9.0,19.0,46,0.00,,,0.00,,2013-04-06 02:52:00,
2013-04-05 23:03:00,44.0,27.0,29.80,NNE,13,13.0,24.0,51,0.00,,,0.00,,2013-04-06 03:03:00,
2013-04-05 23:13:00,44.0,27.0,29.80,NNE,13,13.0,24.0,51,0.00,,,0.00,,2013-04-06 03:13:00,
2013-04-05 23:22:00,43.0,27.0,29.80,North,355,9.0,20.0,52,0.00,,,0.00,,2013-04-06 03:22:00,
2013-04-05 23:34:00,42.0,27.0,29.81,NNW,338,7.0,19.0,55,0.00,,,0.00,,2013-04-06 03:34:00,
2013-04-05 23:43:00,42.0,27.0,29.81,NNW,338,7.0,19.0,55,0.00,,,0.00,,2013-04-06 03:43:00,
2013-04-05 23:53:00,41.0,27.0,29.82,WNW,290,4.0,18.0,57,0.00,,,0.00,,2013-04-06 03:53:00,